Weather in Izmaylovskiy

Russia / Chelyabinsk Oblast     52°39′41″N   59°18′33″E
temp.,
°C
wind,
m/s
gust,
m/s
humid.,
%
clouds,
%
prec.,
mm/h
press.,
hPa
HPBL,
m
21 april, wed
wed2123:00+2ssw11420 0.0 103310
02:00+1w11450 0.0 103310
05:000wsw00460 0.0 103310
08:00+3wsw22390 0.0 1034160
11:00+7ssw21300 0.0 1034747
14:00+10s33285 0.0 10331220
17:00+11s332879 0.0 10321364
20:00+8sse3643100 0.0 1033111
22 april, thu
thu2223:00+6sse355182 0.0 103477
02:00+5s3857100 0.0 1034164
05:00+3s3461100 0.0 103568
08:00+5s3855100 0.0 1036297
11:00+8s5738100 0.0 1035863
14:00+10s6736100 0.0 10351194
17:00+11s6838100 0.0 10341257
20:00+9s4747100 0.0 1034186
23 april, fri
fri2323:00+8sse3758100 0.0 1033213
02:00+7s2362100 0.0 103379
05:00+7sse4766100 0.0 1033233
08:00+8se5106295 0.0 1032517
11:00+12sse7945100 0.0 10301304
14:00+14s7840100 0.0 10291878
17:00+12s6752100 0.0 10291476
20:00+9s4875100 0.6 10291117
24 april, sat
sat2423:00+7sse5883100 1.1 1029970
02:00+7se6974100 0.3 1026798
05:00+7ese61375100 0.4 1024561
08:00+7ese61263100 0.0 1022662
11:00+9se91152100 0.0 10201055
14:00+8se81060100 0.1 10191293
17:00+9se8115341 0.9 10161333
20:00+9ese71250100 0.0 1014684
25 april, sun
sun2523:00+7se71172100 0.8 1013571
02:00+7ssw4792100 2.6 1012435
05:00+7wsw5993100 3.1 1014523
08:00+6w4981100 0.1 1017729
11:00+11w695411 0.1 10171190
14:00+13wsw8115982 0.0 10181437
17:00+14sw8115467 0.1 10181683
20:00+12wsw4868100 0.1 1018234